Central Il Rgnl Arpt at Bloomington-Normal Airport
KBMI : now visible

Airfield :











YOU CAN JOIN US ON...

 
LOGIN :

Register | Disclaimer

   EN    FR    IT 

 









Legend :    VFR   Marginal VFR   IFR   Intensive IFR   Very Intensive IFR
Visi :
Ceiling :
>= 8 km
>= 3000ft
5 to 8 km
1000 to 3000 ft
1500m to 5 km
500 to 1000 ft
800 to 1500m
200 to 500 ft
< 800m
< 200 ft
Symbols :   Thunderstorms  Fog  Heavy snow  Heavy precipitations  Wind > 20 kt






- Airport Elevation : 871 ft
- IATA code : BMI


KBMI - Central Il Rgnl Arpt at Bloomington-Normal

CURRENT METAR :
  • 301556Z 04015KT 10SM FEW055 23/17 A3018 RMK AO2 SLP212 T02280167

EXPIRED METARs :
  • 301456Z 05012KT 10SM SCT050 22/17 A3018 RMK AO2 SLP211 T02170172 51022
  • 301356Z 06012KT 10SM SCT050 21/17 A3016 RMK AO2 SLP204 T02110172

TAF KBMI
Valid from the 30 at 12:00 until the 31 at 12:00 UTC


301120Z 3012/3112 03010KT P6SM BKN250
FM301500 06012KT P6SM SCT035 BKN250
FM310500 09007KT P6SM BKN120
FM311000 12007KT P6SM BKN080
KZAU FIR / North America



MET'MAP, your aeronautical weather chart ! - Copyright ORBIFLY December 2007 - Disclaimer

ORBIFLY MET'MAP TEAM :

Programming & Development : Alexandra Zaïnal
Concept & original design : Baudouin d'Aumeries
Assistance for programming : Marc-Olivier Méhu
Technical & hardware support : Manuel Goepfert

Contact : metmap@orbifly.com




SOURCES & CREDITS :

   NOAA       Earth
Advisory